EXS2KC EGCC-LEMH

Flight info

Callsign EXS2KC
Flight time N/A
Altitude 37000
Route N0455F370 LISTO L612 HON UN859 SOPIL DCT BALAN DCT EVPOK DCT NARAK DCT GAI DCT LOMRA DCT ROCAN DCT GEANT DCT GIR DCT SALON DCT SULID N727 SARGO
Aircraft A321/M-SDE2E3FGHIJ1J3J4J5J7M3P2RWXYZ/LB1D1

Departure

Time 2026-05-04 09:07
Airport Manchester Airport (EGCC)

Arrival

Time N/A
Airport Menorca Airport (LEMH)
Time Latitude Longitude Altitude Speed Heading
2026-05-04 08:21 53.36465 -2.27794 255 ft 0 kts 45°
2026-05-04 08:50 53.36449 -2.27821 255 ft 4 kts 45°
2026-05-04 08:50 53.36431 -2.27851 255 ft 2 kts 45°
2026-05-04 08:51 53.36417 -2.27879 255 ft 4 kts 77°
2026-05-04 08:51 53.36421 -2.27914 255 ft 3 kts 134°
2026-05-04 08:51 53.36439 -2.27944 255 ft 3 kts 135°
2026-05-04 08:51 53.36454 -2.27970 255 ft 4 kts 135°
2026-05-04 08:52 53.36458 -2.27976 255 ft 0 kts 135°
2026-05-04 09:01 53.36069 -2.28011 239 ft 7 kts 139°
2026-05-04 09:01 53.36022 -2.27946 255 ft 11 kts 139°
2026-05-04 09:01 53.35953 -2.27859 255 ft 14 kts 159°
2026-05-04 09:01 53.35846 -2.27857 252 ft 18 kts 187°
2026-05-04 09:02 53.35705 -2.27882 245 ft 21 kts 186°
2026-05-04 09:02 53.35609 -2.27934 239 ft 13 kts 229°
2026-05-04 09:02 53.35550 -2.28057 237 ft 15 kts 230°
2026-05-04 09:02 53.35462 -2.28144 236 ft 14 kts 199°
2026-05-04 09:03 53.35376 -2.28167 235 ft 14 kts 186°
2026-05-04 09:03 53.35252 -2.28262 232 ft 25 kts 222°
2026-05-04 09:03 53.35136 -2.28497 227 ft 27 kts 232°
2026-05-04 09:03 53.35022 -2.28727 227 ft 25 kts 224°
2026-05-04 09:04 53.34900 -2.28942 223 ft 26 kts 227°
2026-05-04 09:04 53.34778 -2.29166 219 ft 24 kts 233°
2026-05-04 09:04 53.34668 -2.29336 211 ft 17 kts 198°
2026-05-04 09:04 53.34565 -2.29316 213 ft 14 kts 154°
2026-05-04 09:05 53.34526 -2.29251 216 ft 8 kts 105°
2026-05-04 09:05 53.34555 -2.29190 219 ft 0 kts 49°
2026-05-04 09:05 53.34581 -2.29138 217 ft 24 kts 50°
2026-05-04 09:06 53.34846 -2.28588 230 ft 94 kts 51°
2026-05-04 09:07 53.36329 -2.18447 2552 ft 214 kts 147°
2026-05-04 09:08 53.34955 -2.17157 2690 ft 241 kts 161°
2026-05-04 09:08 53.33231 -2.16883 3073 ft 259 kts 186°
2026-05-04 09:08 53.31408 -2.17204 3720 ft 266 kts 186°
2026-05-04 09:08 53.29546 -2.17518 4471 ft 270 kts 185°
2026-05-04 09:09 53.27658 -2.17848 5219 ft 274 kts 185°
2026-05-04 09:09 53.25750 -2.18179 5999 ft 276 kts 186°
2026-05-04 09:09 53.23858 -2.18483 6738 ft 279 kts 185°
2026-05-04 09:09 53.21924 -2.18775 7472 ft 279 kts 185°
2026-05-04 09:10 53.19980 -2.19052 8210 ft 281 kts 185°
2026-05-04 09:10 53.18021 -2.19306 8917 ft 283 kts 186°
2026-05-04 09:10 53.16044 -2.19553 9622 ft 286 kts 185°
2026-05-04 09:10 53.14040 -2.19797 10229 ft 292 kts 185°
2026-05-04 09:11 53.11933 -2.20057 10365 ft 314 kts 185°
2026-05-04 09:11 53.09679 -2.20343 10490 ft 335 kts 185°
2026-05-04 09:11 53.07319 -2.20645 10909 ft 343 kts 185°
2026-05-04 09:11 53.04953 -2.20954 11484 ft 347 kts 186°
2026-05-04 09:12 53.02532 -2.21267 12098 ft 351 kts 185°
2026-05-04 09:12 53.00059 -2.21581 12726 ft 353 kts 185°
2026-05-04 09:14 52.82913 -2.18676 16791 ft 373 kts 156°
2026-05-04 09:14 52.80537 -2.16873 17312 ft 376 kts 156°
2026-05-04 09:14 52.78148 -2.15064 17847 ft 379 kts 156°
2026-05-04 09:14 52.75749 -2.13250 18367 ft 381 kts 157°
2026-05-04 09:15 52.73323 -2.11423 18837 ft 383 kts 157°
2026-05-04 09:15 52.70892 -2.09600 19308 ft 385 kts 157°
2026-05-04 09:15 52.68445 -2.07773 19746 ft 387 kts 156°
2026-05-04 09:15 52.65978 -2.05936 20200 ft 390 kts 156°
2026-05-04 09:17 52.45848 -1.90997 23758 ft 403 kts 158°
2026-05-04 09:18 52.43279 -1.89099 24117 ft 405 kts 158°
2026-05-04 09:18 52.40703 -1.87202 24523 ft 407 kts 158°
2026-05-04 09:18 52.38112 -1.85296 24850 ft 409 kts 158°
2026-05-04 09:18 52.35508 -1.83383 25196 ft 411 kts 158°
2026-05-04 09:19 52.32892 -1.81464 25520 ft 413 kts 157°
2026-05-04 09:19 52.30266 -1.79539 25851 ft 415 kts 158°
2026-05-04 09:19 52.27616 -1.77620 26170 ft 417 kts 158°
2026-05-04 09:19 52.24949 -1.75709 26506 ft 418 kts 158°
2026-05-04 09:20 52.22280 -1.73807 26831 ft 420 kts 159°
2026-05-04 09:20 52.19599 -1.71900 27167 ft 421 kts 158°
2026-05-04 09:20 52.16901 -1.69981 27483 ft 423 kts 158°
2026-05-04 09:20 52.14198 -1.68058 27793 ft 425 kts 158°
2026-05-04 09:21 52.11520 -1.66152 28090 ft 427 kts 158°
2026-05-04 09:21 52.08796 -1.64212 28387 ft 428 kts 158°
2026-05-04 09:21 52.06059 -1.62263 28676 ft 430 kts 158°
2026-05-04 09:21 52.03318 -1.60309 28939 ft 432 kts 159°
2026-05-04 09:22 52.00562 -1.58345 29274 ft 432 kts 159°
2026-05-04 09:22 51.97807 -1.56391 29609 ft 432 kts 159°
2026-05-04 09:22 51.95039 -1.54438 29903 ft 434 kts 159°
2026-05-04 09:22 51.92264 -1.52486 30192 ft 434 kts 159°
2026-05-04 09:23 51.89493 -1.50540 30524 ft 434 kts 159°
2026-05-04 09:23 51.86725 -1.48591 30840 ft 434 kts 159°
2026-05-04 09:23 51.83954 -1.46643 31125 ft 434 kts 159°
2026-05-04 09:23 51.81188 -1.44700 31415 ft 433 kts 159°
2026-05-04 09:25 51.62043 -1.30916 33460 ft 434 kts 154°
2026-05-04 09:25 51.59405 -1.28535 33714 ft 435 kts 152°
2026-05-04 09:26 51.56789 -1.26087 33974 ft 435 kts 152°
2026-05-04 09:26 51.54176 -1.23644 34208 ft 435 kts 152°
2026-05-04 09:26 51.51553 -1.21236 34417 ft 435 kts 153°
2026-05-04 09:26 51.48909 -1.18862 34617 ft 435 kts 153°
2026-05-04 09:27 51.46251 -1.16521 34811 ft 435 kts 154°
2026-05-04 09:27 51.43589 -1.14201 34961 ft 436 kts 154°
2026-05-04 09:27 51.38310 -1.09612 34998 ft 433 kts 154°
2026-05-04 09:28 51.33031 -1.04993 34963 ft 432 kts 153°
2026-05-04 09:28 51.27727 -1.00356 35029 ft 435 kts 153°
2026-05-04 09:29 51.22421 -0.95729 35030 ft 435 kts 153°
2026-05-04 09:29 51.17114 -0.91118 35012 ft 433 kts 154°
2026-05-04 09:30 51.11847 -0.86559 35009 ft 433 kts 154°
2026-05-04 09:30 51.06550 -0.81984 35002 ft 433 kts 154°
2026-05-04 09:31 51.01251 -0.77426 34993 ft 433 kts 154°
2026-05-04 09:31 50.95948 -0.72878 34988 ft 433 kts 154°
2026-05-04 09:32 50.90645 -0.68335 34998 ft 433 kts 154°
2026-05-04 09:34 50.69547 -0.50193 35019 ft 431 kts 154°
2026-05-04 09:34 50.64281 -0.45691 35012 ft 430 kts 154°
2026-05-04 09:35 50.59019 -0.41221 34984 ft 429 kts 154°
2026-05-04 09:35 50.53769 -0.36766 34984 ft 428 kts 154°
2026-05-04 09:37 50.32832 -0.19065 34983 ft 426 kts 154°
2026-05-04 09:38 50.27607 -0.14692 34981 ft 426 kts 154°
2026-05-04 09:38 50.22386 -0.10326 34978 ft 425 kts 154°
2026-05-04 09:39 50.17162 -0.05962 34972 ft 425 kts 154°
2026-05-04 09:39 50.11943 -0.01618 34975 ft 425 kts 155°
2026-05-04 09:40 50.06438 0.01424 34965 ft 419 kts 168°
2026-05-04 09:40 50.00785 0.03637 34984 ft 418 kts 168°
2026-05-04 09:42 49.78260 0.12460 35005 ft 417 kts 168°
2026-05-04 09:43 49.72639 0.14664 35018 ft 416 kts 168°
2026-05-04 09:43 49.67024 0.16850 35025 ft 416 kts 168°
2026-05-04 09:44 49.61421 0.19090 35040 ft 416 kts 167°
2026-05-04 09:46 49.39040 0.28094 35003 ft 416 kts 167°
2026-05-04 09:46 49.33436 0.30325 35002 ft 416 kts 167°
2026-05-04 09:47 49.27826 0.32583 34998 ft 417 kts 167°
2026-05-04 09:49 49.05442 0.42063 34969 ft 417 kts 167°
2026-05-04 09:51 48.85937 0.50194 34966 ft 415 kts 167°
2026-05-04 09:51 48.80369 0.52494 34967 ft 414 kts 167°
2026-05-04 09:52 48.75743 0.54379 34962 ft 414 kts 167°
2026-05-04 09:52 48.70165 0.56553 34962 ft 414 kts 167°
2026-05-04 09:53 48.64587 0.58700 34963 ft 414 kts 168°
2026-05-04 09:53 48.59001 0.60873 34964 ft 413 kts 167°
2026-05-04 09:54 48.53433 0.63051 34962 ft 413 kts 167°
2026-05-04 09:54 48.47861 0.65260 34961 ft 413 kts 167°
2026-05-04 09:55 48.42310 0.67537 34963 ft 413 kts 167°
2026-05-04 09:55 48.36758 0.69812 34963 ft 413 kts 167°
2026-05-04 09:56 48.31243 0.72044 34959 ft 413 kts 167°
2026-05-04 09:56 48.25687 0.74288 34957 ft 413 kts 167°
2026-05-04 09:57 48.20132 0.76506 34962 ft 413 kts 168°
2026-05-04 09:57 48.14565 0.78673 34965 ft 413 kts 168°
2026-05-04 09:58 48.09005 0.80846 34966 ft 412 kts 168°
2026-05-04 09:58 48.03450 0.83024 34968 ft 412 kts 168°
2026-05-04 10:00 47.81331 0.91644 34983 ft 410 kts 168°
2026-05-04 10:04 47.42688 1.06239 34968 ft 407 kts 176°
2026-05-04 10:04 47.37052 1.06300 34970 ft 405 kts 182°
2026-05-04 10:05 47.31416 1.06167 34976 ft 405 kts 182°
2026-05-04 10:05 47.25785 1.06037 34985 ft 404 kts 182°
2026-05-04 10:06 47.20164 1.05902 34987 ft 404 kts 182°
2026-05-04 10:06 47.14538 1.05763 34987 ft 403 kts 182°
2026-05-04 10:08 46.94955 1.05208 34967 ft 402 kts 183°
2026-05-04 10:08 46.89364 1.04943 34962 ft 402 kts 183°
2026-05-04 10:09 46.83766 1.04687 34964 ft 402 kts 183°
2026-05-04 10:09 46.78165 1.04447 34964 ft 402 kts 183°
2026-05-04 10:10 46.72571 1.04217 34958 ft 402 kts 183°
2026-05-04 10:10 46.66976 1.03974 34961 ft 402 kts 183°
2026-05-04 10:11 46.61420 1.03739 34963 ft 402 kts 183°
2026-05-04 10:11 46.55826 1.03511 34949 ft 402 kts 183°
2026-05-04 10:12 46.50199 1.03803 34951 ft 405 kts 171°
2026-05-04 10:12 46.44730 1.05613 34952 ft 406 kts 169°
2026-05-04 10:13 46.39217 1.07469 34948 ft 406 kts 169°
2026-05-04 10:13 46.33702 1.09317 34942 ft 407 kts 170°
2026-05-04 10:14 46.28177 1.11155 34951 ft 407 kts 170°
2026-05-04 10:16 46.06096 1.18469 34957 ft 408 kts 170°
2026-05-04 10:16 46.00563 1.20296 34953 ft 407 kts 170°
2026-05-04 10:17 45.95043 1.22117 34961 ft 407 kts 170°
2026-05-04 10:19 45.73009 1.29314 34961 ft 406 kts 171°
2026-05-04 10:19 45.67484 1.31107 34957 ft 406 kts 171°
2026-05-04 10:20 45.61995 1.32887 34958 ft 406 kts 171°
2026-05-04 10:20 45.56474 1.34684 34950 ft 406 kts 171°
2026-05-04 10:21 45.50960 1.36478 34954 ft 407 kts 171°
2026-05-04 10:21 45.45439 1.38267 34955 ft 407 kts 171°
2026-05-04 10:22 45.37186 1.40918 34950 ft 407 kts 171°
2026-05-04 10:23 45.31664 1.42693 34950 ft 407 kts 171°
2026-05-04 10:25 45.09515 1.49766 34950 ft 408 kts 171°
2026-05-04 10:25 45.03962 1.51539 34954 ft 409 kts 171°
2026-05-04 10:26 44.98437 1.53296 34928 ft 409 kts 171°
2026-05-04 10:26 44.92889 1.55049 34954 ft 408 kts 172°
2026-05-04 10:27 44.87350 1.56802 34961 ft 407 kts 172°
2026-05-04 10:27 44.81825 1.58542 34963 ft 407 kts 172°
2026-05-04 10:28 44.76298 1.60278 34962 ft 406 kts 172°